Home   Weather   Victoria   Past weeks

Flag for Seychelles Past Weather in Victoria, Seychelles — Yesterday and Last 2 Weeks

Now
82 °F

Partly sunny.


Feels Like: 91 °F
Forecast: 74 / 81 °F
Wind: 5 mph from West

Location: National Airport

Current Time: Dec 10, 2016 at 4:56:17 pm

Latest Report: Dec 10, 2016 at 4:00 pm


Visibility: N/A

Pressure: 29.83 "Hg

Humidity: 84%

Dew Point: 77 °F

Location of VictoriaLocation

Past Weather in Victoria — Graph

°F

Victoria Temperature Yesterday

Maximum temperature yesterday: 84 °F (at 9:00 am)
Minimum temperature yesterday: 77 °F (at 6:00 am)
Average temperature yesterday: 80 °F

High & Low Weather Summary for the Past Weeks

 TemperatureHumidityPressure
High88 °F (Nov 28, 2:00 pm)100% (Dec 6, 2:00 am)29.95 "Hg (Dec 6, 2:00 am)
Low75 °F (Dec 7, 3:00 am)62% (Nov 28, 2:00 pm)29.77 "Hg (Nov 25, 3:00 pm)
Average81 °F81%29.88 "Hg
* Reported Nov 25 3:00 pm — Dec 10 3:00 pm, Victoria, Weather by CustomWeather, © 2016

Note: Actual official high and low records may vary slightly from our data, if they occured in-between our weather recording intervals... More about our weather records

Advertising

Victoria Weather History for the Previous 24 Hours

Scroll right to see more
 ConditionsComfort  
Time TempWeatherWind HumidityBarometerVisibility
3:00 pm
Sat, Dec 10
84 °FScattered showers. Partly sunny.3 mph74%29.83 "HgN/A
2:00 pm84 °FPartly sunny.5 mph74%29.83 "HgN/A
1:00 pm82 °FSprinkles. Partly sunny.6 mph79%29.86 "HgN/A
12:00 pm86 °FScattered showers. Scattered clouds.6 mph75%29.89 "HgN/A
11:00 am86 °FScattered clouds.6 mph75%29.89 "HgN/A
10:00 am86 °FScattered clouds.6 mph75%29.92 "HgN/A
9:00 am86 °FScattered clouds.5 mph75%29.92 "HgN/A
8:00 am82 °FScattered clouds.2 mph79%29.92 "HgN/A
7:00 am79 °FScattered clouds.2 mph94%29.89 "HgN/A
6:00 am77 °FScattered clouds.2 mph94%29.89 "HgN/A
5:00 am77 °FPassing clouds.2 mph94%29.86 "HgN/A
4:00 am77 °FPassing clouds.2 mph89%29.86 "HgN/A
3:00 am77 °FPassing clouds.2 mph94%29.86 "HgN/A
2:00 am77 °FPassing clouds.2 mph94%29.86 "HgN/A
1:00 am77 °FPassing clouds.3 mph94%29.89 "HgN/A
12:00 am77 °FPassing clouds.2 mph94%29.92 "HgN/A
11:00 pm
Fri, Dec 9
77 °FPassing clouds.2 mph94%29.92 "HgN/A
10:00 pm77 °FPassing clouds.3 mph94%29.92 "HgN/A
9:00 pm77 °FSprinkles. Passing clouds.3 mph94%29.92 "HgN/A
8:00 pm79 °FPassing clouds.3 mph89%29.92 "HgN/A
7:00 pm79 °FPassing clouds.3 mph94%29.89 "HgN/A
6:00 pm81 °FScattered clouds.2 mph89%29.86 "HgN/A
5:00 pm81 °FPartly sunny.3 mph89%29.83 "HgN/A
4:00 pm82 °FScattered clouds.3 mph84%29.83 "HgN/A
Weather by CustomWeather, © 2016

See weather overviewHow to use our weather pages